Regional Weather Roundup
Issued by NWS

Home | Current Version | Previous Version | Text Only | Print | Product List | Glossary On
Versions: 1 2 3 4 5 6 7 8 9 10 11 12 13 14 15 16 17 18 19 20 21 22 23 24 25 26 27 28 29 30 31 32 33 34 35 36 37 38 39 40 41 42 43 44 45 46 47 48 49 50
000
ASUS44 KBMX 201310
RWRAL

ALABAMA REGIONAL WEATHER ROUNDUP
NATIONAL WEATHER SERVICE BIRMINGHAM AL
800 AM CDT SUN AUG 20 2017

NOTE: "FAIR" INDICATES FEW OR NO CLOUDS BELOW 12,000 FEET
WITH NO SIGNIFICANT WEATHER AND/OR OBSTRUCTIONS TO VISIBILITY.

THE REMARK "TC" DENOTES TEMPERATURE IN DEGREES CELSIUS.

ALZ001>011-014-016>018-020-201400-
NORTH ALABAMA

CITY           SKY/WX    TMP DP  RH WIND       PRES   REMARKS
MUSCLE SHOALS  SUNNY     77  73  87 SE3       30.08R
HUNTSVILLE     MOSUNNY   77  74  90 E5        30.08R
DECATUR        SUNNY     76  73  91 CALM      30.08R
HALEYVILLE     FAIR      77  75  93 CALM      30.11R
GADSDEN        SUNNY     75  71  87 CALM      30.10R
$$

ALZ012-013-022-023-030>036-040>044-201400-
WEST CENTRAL ALABAMA

CITY           SKY/WX    TMP DP  RH WIND       PRES   REMARKS
TUSCALOOSA     SUNNY     78  76  93 CALM      30.06R
DEMOPOLIS        N/A    N/A N/A N/A SE3       30.06R FOG
$$

ALZ015-024>026-033>036-041>044-201400-
CENTRAL ALABAMA

CITY           SKY/WX    TMP DP  RH WIND       PRES   REMARKS
BIRMINGHAM     MOSUNNY   80  73  79 CALM      30.11R
MONTGOMERY     MOSUNNY   81  72  74 CALM      30.07R
SHELBY CO ARPT SUNNY     77  76  96 CALM      30.08R FOG
MAXWELL AFB    SUNNY     78  74  88 CALM      30.06R
GREENVILLE     FAIR      80  73  79 CALM      30.07R
SELMA          FAIR      79  73  83 CALM      30.06S
PRATTVILLE     FAIR      76  74  95 CALM      30.06S
BESSEMER       FAIR      78  75  90 SE5       30.09R
TALLADEGA      FAIR     N/A N/A N/A MISG      30.10R
PELL CITY        N/A     75  75 100 CALM      30.09R
MARION         FAIR      76  74  93 CALM      30.06R
SYLACAUGA      FAIR      76  75  98 CALM      30.10R
$$

ALZ019-021-028-029-037-038-045>048-201400-
EAST CENTRAL ALABAMA

CITY           SKY/WX    TMP DP  RH WIND       PRES   REMARKS
ANNISTON       SUNNY     73  70  90 E3        30.10R
ALEXANDER CITY MOSUNNY   76  72  89 CALM      30.10R
AUBURN         SUNNY     79  72  79 NE5       30.11R
$$

ALZ051>064-201400-
SOUTHWEST ALABAMA

CITY           SKY/WX    TMP DP  RH WIND       PRES   REMARKS
MOBILE         MOSUNNY   77  74  90 NE3       30.06R
BROOKLEY FIELD MOSUNNY   80  77  90 N5        30.06R
EVERGREEN      SUNNY     76  75  97 N3        30.07R
$$

ALZ049-050-065>069-201400-
SOUTHEAST ALABAMA

CITY           SKY/WX    TMP DP  RH WIND       PRES   REMARKS
DOTHAN         SUNNY     80  74  81 CALM      30.09R
OZARK          SUNNY     78  73  84 CALM      30.06R
TROY           SUNNY     76  73  91 CALM      30.08R
EUFAULA        FAIR      79  74  84 CALM      30.06R
$$



USA.gov is the U.S. government's official web portal to all federal, state and local government web resources and services.